AFR600 TFFF-SOCA

Flight info

Callsign AFR600
Flight time N/A
Altitude 39000
Route BORUS2R BORUS A555 BGI UA555 TRAPP UM786 KALEP KALEP1U
Aircraft A320/M-SDE2E3FGIJ1RWY/HB1

Departure

Time N/A
Airport Martinique Aimé Césaire International Airport (TFFF)

Arrival

Time 2026-05-06 14:24
Airport Cayenne – Félix Eboué Airport (SOCA)
Time Latitude Longitude Altitude Speed Heading
2026-05-06 13:21 9.80830 -56.61557 39101 ft 452 kts 140°
2026-05-06 13:21 9.76052 -56.57417 40573 ft 449 kts 141°
2026-05-06 13:21 9.73683 -56.55364 40375 ft 447 kts 141°
2026-05-06 13:22 9.71321 -56.53321 40031 ft 445 kts 141°
2026-05-06 13:22 9.68969 -56.51289 39659 ft 444 kts 142°
2026-05-06 13:22 9.66648 -56.49291 39279 ft 443 kts 142°
2026-05-06 13:22 9.64306 -56.47272 39054 ft 442 kts 142°
2026-05-06 13:23 9.61965 -56.45251 39083 ft 442 kts 142°
2026-05-06 13:23 9.57284 -56.41208 39082 ft 443 kts 142°
2026-05-06 13:24 9.52593 -56.37163 39082 ft 443 kts 142°
2026-05-06 13:24 9.47902 -56.33117 39082 ft 442 kts 142°
2026-05-06 13:25 9.43218 -56.29069 39083 ft 443 kts 142°
2026-05-06 13:25 9.38515 -56.25022 39092 ft 444 kts 142°
2026-05-06 13:26 9.33809 -56.20975 39096 ft 443 kts 142°
2026-05-06 13:26 9.29106 -56.16922 39098 ft 444 kts 142°
2026-05-06 13:27 9.24409 -56.12870 39101 ft 444 kts 142°
2026-05-06 13:27 9.19709 -56.08814 39102 ft 444 kts 142°
2026-05-06 13:28 9.15009 -56.04770 39098 ft 443 kts 142°
2026-05-06 13:28 9.10337 -56.00757 39095 ft 443 kts 142°
2026-05-06 13:29 9.05441 -55.97004 39092 ft 441 kts 147°
2026-05-06 13:29 9.00413 -55.93446 39090 ft 441 kts 147°
2026-05-06 13:30 8.95381 -55.89881 39093 ft 442 kts 147°
2026-05-06 13:30 8.90348 -55.86313 39093 ft 442 kts 147°
2026-05-06 13:31 8.85311 -55.82752 39094 ft 442 kts 147°
2026-05-06 13:31 8.80277 -55.79193 39094 ft 441 kts 147°
2026-05-06 13:32 8.75246 -55.75633 39095 ft 441 kts 147°
2026-05-06 13:32 8.70217 -55.72073 39094 ft 441 kts 147°
2026-05-06 13:33 8.65226 -55.68548 39094 ft 440 kts 147°
2026-05-06 13:33 8.60202 -55.65009 39093 ft 440 kts 147°
2026-05-06 13:34 8.55189 -55.61460 39093 ft 440 kts 147°
2026-05-06 13:34 8.50170 -55.57913 39092 ft 440 kts 147°
2026-05-06 13:35 8.45150 -55.54370 39093 ft 440 kts 147°
2026-05-06 13:35 8.40133 -55.50827 39092 ft 440 kts 147°
2026-05-06 13:36 8.35105 -55.47286 39092 ft 440 kts 147°
2026-05-06 13:36 8.30082 -55.43747 39091 ft 440 kts 147°
2026-05-06 13:37 8.25094 -55.40235 39093 ft 440 kts 147°
2026-05-06 13:37 8.20070 -55.36698 39093 ft 440 kts 147°
2026-05-06 13:38 8.15051 -55.33154 39092 ft 441 kts 147°
2026-05-06 13:38 8.10030 -55.29607 39091 ft 441 kts 147°
2026-05-06 13:39 8.04997 -55.26068 39087 ft 441 kts 147°
2026-05-06 13:39 7.99967 -55.22534 39085 ft 441 kts 147°
2026-05-06 13:40 7.94935 -55.18991 39085 ft 440 kts 147°
2026-05-06 13:40 7.89910 -55.15458 39082 ft 440 kts 147°
2026-05-06 13:41 7.84878 -55.11924 39081 ft 440 kts 147°
2026-05-06 13:41 7.79859 -55.08389 39077 ft 440 kts 147°
2026-05-06 13:42 7.74862 -55.04875 39075 ft 440 kts 147°
2026-05-06 13:42 7.69834 -55.01346 39072 ft 440 kts 147°
2026-05-06 13:43 7.64804 -54.97815 39073 ft 441 kts 147°
2026-05-06 13:43 7.59775 -54.94285 39069 ft 440 kts 147°
2026-05-06 13:44 7.54745 -54.90758 39067 ft 440 kts 147°
2026-05-06 13:44 7.49717 -54.87226 39065 ft 441 kts 147°
2026-05-06 13:45 7.44685 -54.83690 39067 ft 441 kts 147°
2026-05-06 13:45 7.37147 -54.78412 39071 ft 441 kts 147°
2026-05-06 13:46 7.32106 -54.74878 39069 ft 441 kts 147°
2026-05-06 13:46 7.27070 -54.71348 39070 ft 441 kts 147°
2026-05-06 13:47 7.22030 -54.67819 39069 ft 441 kts 147°
2026-05-06 13:47 7.16990 -54.64291 39074 ft 441 kts 147°
2026-05-06 13:48 7.11958 -54.60761 39072 ft 441 kts 147°
2026-05-06 13:48 7.06924 -54.57241 39073 ft 440 kts 148°
2026-05-06 13:49 7.01923 -54.53746 39073 ft 441 kts 147°
2026-05-06 13:49 6.96891 -54.50228 39075 ft 440 kts 147°
2026-05-06 13:50 6.91866 -54.46712 39074 ft 440 kts 147°
2026-05-06 13:50 6.86844 -54.43188 39076 ft 439 kts 147°
2026-05-06 13:51 6.81821 -54.39675 39075 ft 439 kts 148°
2026-05-06 13:51 6.76798 -54.36170 39079 ft 439 kts 147°
2026-05-06 13:52 6.71782 -54.32670 39083 ft 438 kts 147°
2026-05-06 13:52 6.66777 -54.29166 39084 ft 438 kts 147°
2026-05-06 13:53 6.61805 -54.25686 39084 ft 438 kts 147°
2026-05-06 13:53 6.56809 -54.22196 39084 ft 437 kts 147°
2026-05-06 13:54 6.51812 -54.18713 39082 ft 436 kts 147°
2026-05-06 13:54 6.46821 -54.15236 39081 ft 436 kts 147°
2026-05-06 13:55 6.41845 -54.11763 39082 ft 436 kts 147°
2026-05-06 13:55 6.36868 -54.08288 39074 ft 435 kts 147°
2026-05-06 13:56 6.31919 -54.04839 39073 ft 435 kts 147°
2026-05-06 13:56 6.26954 -54.01375 39075 ft 434 kts 147°
2026-05-06 13:57 6.22025 -53.97853 39071 ft 435 kts 146°
2026-05-06 13:57 6.17219 -53.94143 39074 ft 435 kts 144°
2026-05-06 13:58 6.12447 -53.90401 39076 ft 435 kts 144°
2026-05-06 13:58 6.07655 -53.86700 38937 ft 435 kts 145°
2026-05-06 13:59 6.05249 -53.84861 38684 ft 434 kts 145°
2026-05-06 13:59 6.02847 -53.83033 38443 ft 433 kts 145°
2026-05-06 13:59 6.00449 -53.81206 38185 ft 432 kts 145°
2026-05-06 13:59 5.98056 -53.79378 37933 ft 432 kts 145°
2026-05-06 14:00 5.95664 -53.77550 37424 ft 433 kts 144°
2026-05-06 14:00 5.93296 -53.75742 36650 ft 434 kts 144°
2026-05-06 14:00 5.90887 -53.73900 35846 ft 436 kts 144°
2026-05-06 14:00 5.88474 -53.72050 35219 ft 433 kts 144°
2026-05-06 14:01 5.86089 -53.70220 34688 ft 428 kts 144°
2026-05-06 14:01 5.83733 -53.68408 34134 ft 425 kts 143°
2026-05-06 14:01 5.81396 -53.66611 33579 ft 421 kts 143°
2026-05-06 14:01 5.79074 -53.64834 33026 ft 418 kts 144°
2026-05-06 14:02 5.76773 -53.63078 32492 ft 414 kts 144°
2026-05-06 14:02 5.74488 -53.61334 31955 ft 411 kts 144°
2026-05-06 14:02 5.72223 -53.59605 31429 ft 407 kts 144°
2026-05-06 14:02 5.69977 -53.57890 30904 ft 404 kts 144°
2026-05-06 14:03 5.67751 -53.56188 30394 ft 400 kts 144°
2026-05-06 14:03 5.65545 -53.54499 29891 ft 397 kts 144°
2026-05-06 14:03 5.63361 -53.52826 29394 ft 394 kts 144°
2026-05-06 14:03 5.61193 -53.51167 28916 ft 390 kts 144°
2026-05-06 14:04 5.59043 -53.49520 28444 ft 387 kts 144°
2026-05-06 14:04 5.57629 -53.48437 28130 ft 385 kts 144°
2026-05-06 14:04 5.55506 -53.46812 27671 ft 382 kts 144°
2026-05-06 14:04 5.52690 -53.44659 27072 ft 378 kts 144°
2026-05-06 14:05 5.51310 -53.43605 26778 ft 375 kts 144°
2026-05-06 14:05 5.49240 -53.42025 26340 ft 372 kts 144°
2026-05-06 14:05 5.47189 -53.40459 25883 ft 369 kts 144°
2026-05-06 14:05 5.44492 -53.38400 25290 ft 365 kts 143°
2026-05-06 14:06 5.42481 -53.36863 24813 ft 362 kts 143°
2026-05-06 14:06 5.41155 -53.35848 24510 ft 361 kts 143°
2026-05-06 14:06 5.39140 -53.34303 24023 ft 359 kts 143°
2026-05-06 14:06 5.37189 -53.32809 23548 ft 357 kts 143°
2026-05-06 14:07 5.35216 -53.31301 23067 ft 356 kts 143°
2026-05-06 14:07 5.33248 -53.29800 22585 ft 355 kts 143°
2026-05-06 14:07 5.31288 -53.28304 22103 ft 354 kts 143°
2026-05-06 14:07 5.29332 -53.26811 21636 ft 353 kts 142°
2026-05-06 14:08 5.27383 -53.25322 21161 ft 351 kts 142°
2026-05-06 14:08 5.25434 -53.23834 20695 ft 350 kts 142°
2026-05-06 14:08 5.23493 -53.22354 20231 ft 349 kts 142°
2026-05-06 14:08 5.21561 -53.20884 19773 ft 348 kts 142°
2026-05-06 14:09 5.19635 -53.19417 19308 ft 347 kts 142°
2026-05-06 14:09 5.17782 -53.17912 18850 ft 346 kts 134°
2026-05-06 14:09 5.16248 -53.16075 18391 ft 343 kts 123°
2026-05-06 14:09 5.14881 -53.14115 17937 ft 342 kts 123°
2026-05-06 14:10 5.13511 -53.12168 17485 ft 341 kts 124°
2026-05-06 14:10 5.12144 -53.10232 17038 ft 339 kts 123°
2026-05-06 14:10 5.10781 -53.08307 16593 ft 338 kts 123°
2026-05-06 14:10 5.09422 -53.06383 16157 ft 336 kts 123°
2026-05-06 14:11 5.08074 -53.04475 15723 ft 335 kts 123°
2026-05-06 14:11 5.06733 -53.02578 15284 ft 332 kts 123°
2026-05-06 14:11 5.05400 -53.00690 14850 ft 330 kts 123°
2026-05-06 14:11 5.04078 -52.98817 14420 ft 328 kts 123°
2026-05-06 14:12 5.02783 -52.96980 13992 ft 325 kts 123°
2026-05-06 14:12 5.01483 -52.95137 13564 ft 322 kts 123°
2026-05-06 14:12 5.00191 -52.93309 13136 ft 320 kts 123°
2026-05-06 14:12 4.98919 -52.91515 12949 ft 310 kts 123°
2026-05-06 14:13 4.97695 -52.89790 12778 ft 300 kts 123°
2026-05-06 14:13 4.96498 -52.88100 12467 ft 295 kts 123°
2026-05-06 14:13 4.95317 -52.86430 12103 ft 292 kts 122°
2026-05-06 14:13 4.94148 -52.84773 11745 ft 289 kts 122°
2026-05-06 14:14 4.92990 -52.83131 11367 ft 288 kts 122°
2026-05-06 14:14 4.91835 -52.81492 10934 ft 287 kts 122°
2026-05-06 14:14 4.90691 -52.79868 10380 ft 284 kts 122°
2026-05-06 14:14 4.89555 -52.78257 9768 ft 282 kts 123°
2026-05-06 14:15 4.88426 -52.76657 9147 ft 280 kts 122°
2026-05-06 14:15 4.87314 -52.75084 8725 ft 272 kts 123°
2026-05-06 14:15 4.86238 -52.73566 8376 ft 263 kts 122°
2026-05-06 14:15 4.85181 -52.72077 7972 ft 261 kts 122°
2026-05-06 14:16 4.84129 -52.70589 7537 ft 261 kts 122°
2026-05-06 14:16 4.83080 -52.69105 7072 ft 261 kts 122°
2026-05-06 14:16 4.82027 -52.67613 6593 ft 262 kts 122°
2026-05-06 14:16 4.80977 -52.66119 6133 ft 263 kts 122°
2026-05-06 14:17 4.79921 -52.64621 5659 ft 263 kts 122°
2026-05-06 14:17 4.78878 -52.63145 5182 ft 263 kts 122°
2026-05-06 14:17 4.77822 -52.61650 4701 ft 261 kts 122°
2026-05-06 14:17 4.76781 -52.60180 4405 ft 251 kts 122°
2026-05-06 14:18 4.75813 -52.58825 4323 ft 227 kts 122°
2026-05-06 14:18 4.74935 -52.57593 4270 ft 207 kts 122°
2026-05-06 14:18 4.74113 -52.56433 4213 ft 201 kts 120°
2026-05-06 14:18 4.73620 -52.55201 4147 ft 184 kts 93°
2026-05-06 14:19 4.73768 -52.53982 4031 ft 173 kts 68°
2026-05-06 14:19 4.74269 -52.52885 3722 ft 173 kts 65°
2026-05-06 14:19 4.74789 -52.51764 3240 ft 180 kts 65°
2026-05-06 14:19 4.75316 -52.50625 2888 ft 178 kts 65°
2026-05-06 14:20 4.75821 -52.49529 2627 ft 167 kts 65°
2026-05-06 14:20 4.76291 -52.48511 2403 ft 156 kts 65°
2026-05-06 14:20 4.76730 -52.47559 2199 ft 145 kts 65°
2026-05-06 14:20 4.77132 -52.46688 2030 ft 132 kts 65°
2026-05-06 14:21 4.77503 -52.45882 1853 ft 125 kts 65°
2026-05-06 14:21 4.77868 -52.45091 1688 ft 123 kts 64°
2026-05-06 14:21 4.78227 -52.44311 1522 ft 123 kts 66°
2026-05-06 14:21 4.78587 -52.43532 1347 ft 123 kts 65°
2026-05-06 14:22 4.78944 -52.42759 1193 ft 122 kts 65°
2026-05-06 14:22 4.79296 -52.41986 1036 ft 122 kts 66°
2026-05-06 14:22 4.79650 -52.41215 892 ft 122 kts 64°
2026-05-06 14:22 4.80006 -52.40445 694 ft 121 kts 65°
2026-05-06 14:23 4.80364 -52.39676 548 ft 121 kts 63°
2026-05-06 14:23 4.80719 -52.38901 398 ft 124 kts 68°
2026-05-06 14:23 4.81071 -52.38139 219 ft 122 kts 66°
2026-05-06 14:23 4.81427 -52.37368 54 ft 121 kts 65°
2026-05-06 14:24 4.81744 -52.36675 28 ft 89 kts 65°
2026-05-06 14:24 4.81932 -52.36267 29 ft 40 kts 65°
2026-05-06 14:24 4.81997 -52.36125 29 ft 17 kts 65°
2026-05-06 14:24 4.82049 -52.36017 29 ft 16 kts 63°
2026-05-06 14:25 4.82116 -52.35976 29 ft 13 kts 347°
2026-05-06 14:25 4.82172 -52.36038 29 ft 9 kts 305°
2026-05-06 14:25 4.82190 -52.36091 29 ft 8 kts 257°
2026-05-06 14:25 4.82169 -52.36145 29 ft 8 kts 245°
2026-05-06 14:26 4.82144 -52.36195 29 ft 8 kts 244°
2026-05-06 14:26 4.82119 -52.36241 29 ft 7 kts 238°
2026-05-06 14:26 4.82097 -52.36285 29 ft 7 kts 247°
2026-05-06 14:26 4.82083 -52.36326 29 ft 5 kts 267°
2026-05-06 14:27 4.82105 -52.36345 29 ft 3 kts 337°
2026-05-06 14:27 4.82107 -52.36346 29 ft 0 kts 337°
2026-05-06 14:27 4.82108 -52.36346 29 ft 0 kts 337°
2026-05-06 14:27 4.82115 -52.36349 29 ft 4 kts 337°
2026-05-06 14:28 4.82138 -52.36360 29 ft 3 kts 334°
2026-05-06 14:28 4.82153 -52.36367 29 ft 1 kts 334°
2026-05-06 14:28 4.82154 -52.36367 29 ft 0 kts 334°